Regional Weather Roundup
Issued by NWS Bismarck, ND

Home | Current Version | Previous Version | Text Only | Print | Product List | Glossary On
Versions: 1 2 3 4 5 6 7 8 9 10 11 12 13 14 15 16 17 18 19 20 21 22 23 24 25 26 27 28 29 30 31 32 33 34 35 36 37 38 39 40 41 42 43 44 45 46 47 48 49 50
000
ASUS43 KBIS 181210
RWRBIS

NWR BROADCAST TEXT
NATIONAL WEATHER SERVICE BISMARCK ND
600 AM CST THU DEC 18 2014

NOTE: "FAIR" INDICATES FEW OR NO CLOUDS BELOW 12,000 FEET WITH NO
SIGNIFICANT WEATHER AND/OR OBSTRUCTIONS TO VISIBILITY.


CITY           SKY/WX    TMP DP  RH WIND       PRES   REMARKS
WILLISTON      CLOUDY    21  17  84 SE7       30.00F WCI  12
MINOT          MOCLDY    15  11  83 SE6       30.06F WCI   6
MINOT AFB      CLOUDY    14  13  98 SE7       30.06S WCI   3
BISMARCK       CLOUDY    16  15  96 S9        30.10F WCI   4
DICKINSON      CLOUDY    21  17  84 S10       29.95F WCI  10
GARRISON         N/A     18  15  88 S7        30.05F WCI   9
HETTINGER ARPT CLOUDY    20  18  92 S6        29.98F WCI  12
JAMESTOWN      CLOUDY    13  10  88 SE7       30.15F WCI   3
BEACH          CLOUDY    23  23 100 S5        29.95S WCI  17
CARRINGTON     CLOUDY    12  12 100 MISG      30.14F
CROSBY         CLOUDY    19  18  93 S9        30.01S WCI   9
HARVEY         CLOUDY    14  10  85 SE6       30.11F WCI   5
HAZEN          CLOUDY    18  14  86 S10       30.07S WCI   6
LINTON         CLOUDY    16  16 100 SE12      30.10F FOG     WCI   3
MANDAN         CLOUDY    16  14  93 SE6       30.09R WCI   7
OAKES            N/A     14  12  92 CALM      30.19F
RUGBY          CLOUDY    12   9  85 SE8       30.12F WCI   1
STANLEY        CLOUDY    18  18 100 S8        30.00F WCI   7
TIOGA          FLURRIES  18  18 100 S10       30.02S WCI   6
WATFORD CITY   CLOUDY    19  18  93 SE6       29.99S WCI  11
$$

CITY           SKY/WX    TMP DP  RH WIND       PRES   REMARKS
GRAND FORKS    PTCLDY     5   1  83 SE5       30.26F WCI  -4
GRAND FORKS AF PTCLDY     1  -1  94 S2        30.25F
DEVILS LAKE    CLEAR      9   0  66 SE8       30.14F WCI  -4
FARGO          PTCLDY     8   4  83 CALM      30.26F
CANDO          PTSUNNY    5   1  85 SE7       30.16S WCI  -7
CAVALIER       FAIR       5   1  85 CALM      30.24F
GWINNER        PTSUNNY   14  14 100 MISG      30.22S
LANGDON        FAIR       3   0  85 S8        30.16F WCI -10
ROLLA          FAIR       3   1  92 S7        30.11F WCI  -9
WALHALLA         N/A      0   0 100 SE3       30.23F
$$

CITY           SKY/WX    TMP DP  RH WIND       PRES   REMARKS
ABERDEEN       CLOUDY    18  12  77 SE7       30.19F WCI   9
MOBRIDGE       CLOUDY    20  17  88 SE10      30.07F WCI   9
BUFFALO          N/A     24  21  88 S9        29.88F WCI  14
RAPID CITY     CLOUDY    22  20  92 S7        29.99S FOG     WCI  13
GLASGOW        CLOUDY    24  20  84 E7        29.94S WCI  16
SIDNEY         CLOUDY    23  19  86 CALM      30.00F
WOLF POINT     CLOUDY    24  20  84 E6        29.98F WCI  17
GLENDIVE       CLOUDY    23  21  93 CALM      29.97S
MILES CITY     CLOUDY    25  22  88 CALM      29.95S
BAKER          CLOUDY    26  24  92 CALM      29.95R FOG
$$

CITY           SKY/WX    TMP DP  RH WIND       PRES   REMARKS
BILLINGS       PTCLDY    23  17  78 SW16      29.94S WCI  10
GREAT FALLS    CLOUDY    34  25  69 S13       29.89S
REGINA         CLOUDY    19  18  93 S13       29.97F WCI   7
ESTEVAN        FLURRIES  18  14  86 SE8       30.01F WCI   7
$$



USA.gov is the U.S. government's official web portal to all federal, state and local government web resources and services.